Location: Alma?ul Sec
(45.8500°N, 22.8667°E)
Time: 14:12:49
(UTC+00:00)

Daily predictions for brighter satellites

Satellite Brightness Start Highest point End
(mag) Time Altitude Azimuth Time Altitude Azimuth Time Altitude Azimuth
Meteor 1-11 Rocket 4.5 18:27:38 10° N 18:33:17 42° ENE 18:38:53 10° SE
COBE Rocket 4.1 18:28:58 10° SSE 18:34:06 86° WSW 18:39:08 10° NNW
Cosmos 1315 Rocket 3.0 18:31:19 10° N 18:35:22 58° ENE 18:39:21 10° SSE
Cosmos 1812 3.9 18:32:53 10° SSW 18:36:33 47° WNW 18:40:16 10° N
Ariane Rocket 3.5 18:33:11 10° SE 18:38:01 47° ENE 18:42:53 10° N
SJ-6B 4.1 18:37:50 10° SSW 18:41:27 38° W 18:45:01 10° NNW
Resurs 1-3 4.0 18:40:34 10° S 18:44:54 64° WSW 18:49:17 10° NNW
Cosmos 2219 3.5 18:44:52 10° NNW 18:50:27 58° ENE 18:55:58 10° SE
Cosmos 1544 3.6 18:47:42 10° NNW 18:51:11 58° W 18:54:39 10° S
Cosmos 1666 Rocket 3.6 18:48:21 10° N 18:52:45 85° W 18:57:10 10° S
Cosmos 2233 Rocket 4.3 18:46:36 10° SSW 18:52:55 78° W 18:59:16 10° N
SPOT 3 Rocket 4.2 18:48:08 10° SE 18:52:55 41° ENE 18:57:44 10° N
IRS-1A Rocket 4.3 18:48:06 10° SSE 18:53:44 81° ENE 18:59:31 10° NNW
BREEZE M DEB (TANK) 3.6 18:51:50 10° WSW 18:55:40 81° SSE 19:09:47 10° ENE
IRAS Rocket 4.3 18:50:11 10° NNE 18:55:46 64° ESE 19:01:21 10° S
BREEZE-M DEB (TANK) 3.8 18:52:41 10° W 18:55:52 76° NNW 19:05:49 10° ENE
Cosmos 2344 3.9 18:49:43 10° S 18:56:35 38° ESE 19:03:21 10° NE
Aureole 1 Rocket 3.5 18:54:01 10° SSE 18:56:46 23° ESE 18:59:17 10° NE
Meteor 2-6 Rocket 4.3 18:52:45 10° SSW 18:58:08 80° W 19:03:39 10° N
Cosmos 1570 Rocket 4.3 18:53:26 10° NNW 18:58:39 69° WSW 19:03:51 10° S
Cosmos 1151 Rocket 3.4 18:56:01 10° SSW 19:00:17 68° W 19:04:34 10° N
EXPRESS MD2 3.8 18:55:49 10° WNW 19:02:30 77° NNE 19:05:47 11° ESE
Cosmos 1633 Rocket 3.2 18:59:26 10° N 19:03:49 79° W 19:08:10 10° S
Cosmos 1515 4.1 19:01:10 10° SSE 19:04:45 43° E 19:08:21 10° NNE
Resurs 01 Rocket 1.7 19:00:25 10° S 19:04:49 80° WSW 19:09:15 10° NNW
Cosmos 2263 Rocket 3.6 19:05:27 10° N 19:10:05 26° NE 19:14:40 10° ESE
Cosmos 1486 Rocket 4.2 19:05:57 10° S 19:11:06 55° ESE 19:16:16 10° NNE
SJ 16-02 2.9 19:09:15 14° SE 19:11:17 18° E 19:14:16 10° NE
Spot 2 Rocket 4.2 19:07:53 13° SE 19:11:59 38° ENE 19:16:38 10° N
Cosmos 1470 Rocket 3.5 19:07:44 10° N 19:12:05 75° E 19:16:12 11° SSE
Cosmos 1184 Rocket 3.3 19:15:01 16° SSE 19:16:58 34° E 19:19:46 10° NNE
Cosmos 1464 Rocket 4.1 19:10:58 10° S 19:17:03 60° E 19:23:06 10° NNE
ATLAS 2AS CENTAUR R/B 3.7 19:10:55 10° S 19:17:30 31° ESE 19:23:57 10° NE
Cosmos 1743 2.8 19:13:46 10° N 19:17:31 57° E 19:20:25 16° SSE
CZ-4B R/B 2.2 19:15:01 10° N 19:18:08 50° WNW 19:21:14 10° SSW
RESURS DK-1 4.1 19:18:39 14° ESE 19:19:14 14° ESE 19:21:29 10° ENE
NOSS 3-4 (A) 3.3 19:16:06 10° SSW 19:21:47 81° SE 19:27:56 10° NE
Cosmos 1536 2.8 19:17:46 10° N 19:21:49 77° E 19:25:09 14° SSE
NOSS 3-4 (C) 3.3 19:16:10 10° SSW 19:21:52 80° SE 19:28:02 10° NE
Cosmos 1656 4.4 19:17:20 10° SW 19:22:48 56° WNW 19:28:15 10° NNE
Cosmos 2227 Rocket 2.3 19:17:14 10° NNW 19:22:55 75° WSW 19:27:55 13° SSE
Cosmos 1340 2.7 19:19:52 10° S 19:23:32 60° E 19:27:14 10° NNE
SPOT 5 3.5 19:21:07 15° SE 19:25:15 48° ENE 19:30:14 10° N
Cosmos 2228 Rocket 4.3 19:24:15 17° SE 19:26:41 27° E 19:30:29 10° NNE
Cosmos 1515 Rocket 3.5 19:22:33 10° S 19:26:54 78° E 19:31:18 10° NNE
Okean 1 4.1 19:25:33 18° SE 19:27:50 33° E 19:31:28 10° NNE
Cosmos 1980 Rocket 2.5 19:28:42 10° S 19:34:02 47° ESE 19:39:26 10° NE
Cosmos 2369 3.8 19:30:44 10° S 19:36:14 56° ESE 19:41:46 10° NNE
Nadezhda 4 Rocket 4.0 19:30:38 10° N 19:36:53 67° E 19:41:40 17° SSE
SPOT 1/Viking Rocket 4.3 19:33:37 10° S 19:38:39 50° W 19:43:41 10° NNW
SL-4 R/B 2.1 19:34:27 10° WNW 19:39:00 80° SSW 19:41:42 22° SE
Helios 1A Rocket 2.8 19:36:52 20° SSE 19:39:32 76° ENE 19:43:33 10° N
Cosmos 1503 Rocket 4.1 19:34:36 10° S 19:39:44 57° ESE 19:44:58 10° NNE
Cosmos 1869 Rocket 4.2 19:35:44 10° N 19:40:02 43° ENE 19:42:30 22° SE
CARTOSAT-1 3.7 19:37:28 15° S 19:40:59 71° WSW 19:45:18 10° NNW
Terra 2.4 19:38:29 20° SE 19:41:25 44° ENE 19:45:57 10° N
Cosmos 2292 Rocket 4.3 19:39:09 10° NNE 19:41:36 21° ENE 19:42:18 19° E
Timation 2 Rocket 4.2 19:36:31 10° NNW 19:43:03 68° ENE 19:47:53 20° SE
USA 245 4.5 19:38:35 14° S 19:43:26 81° WSW 19:49:48 10° NNW
CZ-2C R/B 4.1 19:39:25 10° NNE 19:44:02 47° E 19:47:06 20° SSE
ARIANE 5 R/B 3.4 19:44:45 22° SE 19:47:12 40° ENE 19:51:26 10° N
Cosmos 921 Rocket 3.1 19:43:02 10° NNW 19:47:34 71° ENE 19:50:09 25° SSE
Cosmos 2360 4.4 19:42:33 10° SSW 19:48:14 78° WNW 19:53:57 10° NNE
ATLAS 3B R/B 4.0 19:43:12 10° NNW 19:49:50 36° NE 19:56:43 10° E
Cosmos 1975 4.0 19:46:53 10° NNE 19:50:29 30° ENE 19:52:02 23° ESE
ISS -2.3 19:49:04 10° NW 19:52:11 35° NNE 19:55:03 12° ENE
Cosmos 1697 Rocket 3.1 19:48:39 10° SW 19:54:16 66° WNW 19:59:56 10° NNE
Cosmos 389 Rocket 3.1 19:52:05 10° NNW 19:55:28 51° W 19:57:35 21° SSW
ERS-1 Rocket 2.9 19:53:23 23° SSE 19:56:35 79° ENE 20:01:38 10° NNW
Cosmos 2297 Rocket 3.9 19:55:18 10° NW 19:59:53 26° WSW 20:04:28 10° SSW
Meteor 2-14 Rocket 4.4 19:55:12 10° N 20:01:19 85° E 20:05:28 22° S
Cosmos 2026 Rocket 4.3 19:56:00 10° N 20:02:01 52° ENE 20:05:33 25° SE
Geosat 4.5 20:01:47 23° ESE 20:04:41 51° NE 20:09:34 10° NNW
Meteor 1-18 Rocket 4.4 20:02:08 23° SSE 20:05:34 55° E 20:11:05 10° NNE
Cosmos 1707 Rocket 4.3 20:04:51 28° SE 20:06:13 35° E 20:10:15 10° NNE
Meteor 2-9 Rocket 4.2 20:02:22 10° N 20:08:12 90° W 20:11:43 24° S
SWAS 4.4 20:07:17 10° NNW 20:11:36 83° WSW 20:13:25 34° SSE
Cosmos 1378 3.2 20:12:06 41° SE 20:13:00 53° E 20:16:35 10° NNE
SL-16 R/B 3.1 20:16:30 26° SE 20:17:44 28° ESE 20:22:30 10° NE
Cosmos 2034 Rocket 4.2 20:11:51 11° SSW 20:17:57 71° W 20:24:19 10° N
Cosmos 2278 3.6 20:31:41 17° SSW 20:36:08 88° ESE 20:41:52 10° NNE
Cosmos 44 Rocket 3.4 20:32:26 10° NNW 20:37:07 61° NE 20:38:54 36° ESE
Cosmos 1733 Rocket 3.2 20:33:26 10° N 20:37:52 60° ENE 20:39:03 43° SE
Meteor 2-8 Rocket 4.4 20:35:54 30° S 20:39:08 76° E 20:45:14 10° NNE
USA 215 3.4 20:34:12 10° ENE 20:40:34 50° SE 20:45:50 15° SSW
Cosmos 1346 Rocket 2.7 20:42:18 54° SSE 20:43:06 73° E 20:47:07 10° NNE
Cosmos 2279 Rocket 4.1 20:42:36 34° SSE 20:45:17 61° E 20:51:25 10° NNE
BREEZE M DEB (TANK) 4.3 20:41:36 10° WNW 20:46:27 65° SSW 21:01:38 16° SE
Cosmos 2360 Rocket 3.5 20:46:58 23° ESE 20:47:16 23° E 20:51:33 10° NE
Cosmos 1862 Rocket 3.7 20:47:26 48° SE 20:48:22 61° E 20:52:48 10° NNE
SJ 16-02 2.2 20:46:08 15° SW 20:49:27 46° WNW 20:53:42 10° N
Cosmos 1777 Rocket 4.2 20:46:24 20° SSW 20:50:01 71° WNW 20:55:17 10° NNE
BREEZE-M DEB (TANK) 2.0 20:51:40 10° WNW 20:54:08 79° SSW 20:54:44 59° SE
Cosmos 2263 Rocket 2.4 20:48:55 10° NNW 20:54:25 60° WSW 20:56:29 37° S
Meteor 2-15 4.4 20:53:02 31° S 20:56:07 88° WNW 21:02:13 10° N
RESURS DK-1 2.9 20:54:26 24° SW 20:56:45 58° WNW 21:00:50 10° NNE
ATLAS CENTAUR R/B 3.9 20:54:55 10° NNW 20:58:36 20° NNE 21:02:10 10° E
GRACE-FO 1 4.4 20:57:22 10° N 21:00:59 78° E 21:01:04 77° ESE
GRACE-FO 2 4.4 20:57:46 10° N 21:01:24 79° E 21:01:29 78° ESE
Iridium 4 Rocket 4.1 20:59:04 10° NNE 21:03:14 36° E 21:04:00 34° ESE
Cosmos 1441 Rocket 3.1 21:03:27 63° E 21:03:27 63° E 21:07:04 10° NNE
Cosmos 482 Debris 4.3 21:00:26 10° WNW 21:03:51 72° SSW 21:04:32 59° SSE
ADEOS Rocket 4.3 21:01:11 18° E 21:04:01 26° ENE 21:08:47 10° N
USA 81 4.4 21:01:44 30° SSW 21:04:15 62° W 21:09:31 10° N
Cosmos 2180 Rocket 4.5 21:03:15 39° SSE 21:05:31 66° E 21:11:37 10° NNE
Cosmos 1066 Rocket 4.3 21:03:43 41° SSE 21:05:34 62° E 21:11:12 10° NNE
ATLAS 2AS CENTAUR R/B 3.2 21:00:12 10° SW 21:08:00 72° NW 21:15:34 10° NE
Cosmos 2344 4.3 21:03:31 10° WSW 21:10:41 50° NW 21:18:22 10° NE
ERS-2 4.0 21:08:18 10° NE 21:10:17 20° ENE 21:10:17 20° ENE
USA 267 3.7 21:10:34 14° ESE 21:16:09 61° NNE 21:22:34 10° NW
Meteor 1-4 Rocket 2.5 21:12:52 10° N 21:16:05 71° NNE 21:16:05 71° NNE
SL-4 R/B 4.1 21:15:05 10° W 21:17:09 16° WSW 21:17:09 16° WSW
Cosmos 1980 Rocket 3.9 21:13:13 10° WSW 21:18:12 32° NW 21:23:15 10° N
Meteor 2-4 Rocket 4.5 21:14:53 22° SW 21:18:31 49° WNW 21:24:02 10° N
Terra 3.6 21:17:21 17° SW 21:19:22 22° W 21:23:06 10° NW
Cosmos 2333 Rocket 3.5 21:20:27 24° ESE 21:20:37 24° ESE 21:25:01 10° NE
ARIANE 5 R/B 4.4 21:22:17 19° WSW 21:23:47 22° W 21:27:21 10° NW
Cosmos 2322 Rocket 2.1 21:22:40 48° S 21:24:10 69° ESE 21:29:46 10° NNE
Spot 4 3.8 21:26:34 56° SE 21:27:33 77° ENE 21:32:22 10° N
Cosmos 1726 2.8 21:24:49 10° N 21:28:08 44° ENE 21:28:08 44° ENE
Cosmos 1538 Rocket 4.4 21:23:24 10° NNW 21:28:30 52° WSW 21:29:41 43° SSW
ISS -2.5 21:25:48 10° WNW 21:27:57 36° WNW 21:27:57 36° WNW
CZ-4C R/B 4.2 21:23:51 10° NNW 21:30:06 35° NE 21:37:23 10° E
Iridium 2 4.3 21:26:40 10° NNW 21:30:15 44° W 21:30:26 44° W
Cosmos 1805 3.2 21:26:41 10° NNW 21:30:34 72° W 21:30:37 72° WSW
Cosmos 1655 Rocket 3.9 21:28:29 10° N 21:34:46 79° E 21:36:48 45° SSE
Cosmos 1844 Rocket 2.8 21:29:55 10° NNW 21:35:30 66° ENE 21:37:16 43° SE
Cosmos 1766 3.2 21:37:14 10° N 21:41:05 77° ENE 21:41:05 77° ENE
ATLAS 3B R/B 2.9 21:33:50 10° NW 21:41:12 73° WSW 21:44:09 40° SSE
Okean 1-7 2.9 21:41:25 76° SSE 21:41:43 82° E 21:46:07 10° N
NOSS 2-1 (E) 3.6 21:41:56 48° NW 21:41:56 48° NW 21:44:58 10° NNE
Cosmos 923 Rocket 4.0 21:41:41 10° NNW 21:47:02 82° WSW 21:48:08 58° S
Cosmos 1844 3.8 21:43:30 10° NNW 21:49:20 72° ENE 21:51:09 45° SE
Meteor 1-15 Rocket 4.1 21:46:10 10° N 21:51:50 90° W 21:53:15 53° S
Cosmos 2219 Rocket 3.1 21:52:22 32° ESE 21:52:43 32° ESE 21:57:36 10° NE
Cosmos 2237 4.3 21:54:30 40° SW 21:56:38 75° WNW 22:02:23 10° NNE
Cosmos 1703 Rocket 3.5 21:57:16 67° SW 21:57:41 74° W 22:02:09 10° N
Cosmos 1937 Rocket 3.5 21:57:14 59° SSE 21:57:57 66° ESE 22:03:11 10° NNE
Cosmos 1733 4.4 21:55:25 10° NNW 21:58:38 31° W 21:58:38 31° W
SL-16 R/B 3.0 21:58:18 23° WSW 22:01:33 48° WNW 22:07:04 10° NNE
Cosmos 1818 3.7 21:58:46 10° NNW 22:04:15 71° NE 22:05:57 44° ESE
Okean 3 3.4 22:04:22 74° W 22:04:29 75° W 22:08:44 10° N
Cosmos 2112 Rocket 3.9 22:02:22 10° NNW 22:07:44 84° WSW 22:08:42 61° S
Cosmos 1707 3.6 22:08:40 39° ENE 22:08:40 39° ENE 22:11:53 10° NNE
Cosmos 1680 Rocket 3.5 22:04:31 10° NNW 22:09:48 70° WSW 22:10:37 59° SSW
Gblst 52 Del rocket 4.2 22:06:59 33° SW 22:09:52 77° SSE 22:15:35 10° ENE
Cosmos 1782 Rocket 3.5 22:08:31 10° NNW 22:12:52 71° W 22:12:59 71° WSW
H-2A R/B 3.9 22:09:34 10° N 22:13:33 50° WNW 22:13:55 48° W
COSMOS 2428 3.5 22:13:03 33° ESE 22:13:37 34° ESE 22:18:40 10° NE
Cosmos 2242 Rocket 3.8 22:15:41 58° WSW 22:16:12 63° W 22:20:44 10° N
Cosmos 1470 2.8 22:13:41 10° N 22:17:16 72° NNE 22:17:16 72° NNE
Cosmos 2237 Rocket 4.2 22:17:12 13° ESE 22:18:06 13° E 22:20:42 10° ENE
ALOS 2 3.0 22:19:32 50° WSW 22:19:37 50° W 22:23:54 10° NNW
Cosmos 1461 4.4 22:17:38 10° NNW 22:21:24 33° NE 22:23:14 23° E
Cosmos 1898 Rocket 3.9 22:22:00 40° WSW 22:23:39 58° WNW 22:28:55 10° NNE
USA 215 3.7 22:17:14 10° NE 22:23:40 61° NNW 22:30:06 10° WSW
Cosmos 1953 4.4 22:23:31 10° NNE 22:26:24 19° ENE 22:27:23 17° E
Okean 2 Rocket 3.7 22:22:30 10° N 22:26:52 46° ENE 22:27:31 43° ESE
Cosmos 858 Rocket 4.5 22:26:25 56° SW 22:27:32 79° WNW 22:32:51 10° NNE
Cosmos 2333 4.1 22:27:13 57° SSW 22:28:26 84° ESE 22:34:06 10° NNE
Cosmos 2360 Rocket 2.5 22:28:41 37° WSW 22:30:46 59° WNW 22:36:23 10° NNE
Meteor 1-22 Rocket 4.5 22:27:28 10° NNW 22:33:17 62° W 22:34:45 48° SSW
Cosmos 1300 Rocket 3.4 22:29:46 10° N 22:34:07 80° W 22:34:12 79° WSW
Cosmos 405 Rocket 4.2 22:37:21 26° E 22:37:21 26° E 22:40:09 10° NE
Cosmos 1758 3.5 22:34:02 10° N 22:37:55 63° ENE 22:37:55 63° ENE
ATLAS CENTAUR R/B 1.5 22:33:11 10° NW 22:38:05 89° WSW 22:38:34 72° SSE
Cosmos 1842 4.2 22:41:12 38° WNW 22:41:12 38° WNW 22:44:51 10° N
In-Cosmos 22 4.1 22:41:45 55° S 22:42:59 78° E 22:48:32 10° NNE
ERS-2 3.6 22:41:26 10° N 22:44:32 27° WNW 22:44:41 27° WNW
Cosmos 1908 3.8 22:41:31 10° N 22:45:07 48° ENE 22:45:07 48° ENE
Cosmos 2278 Rocket 3.4 22:42:03 10° NNW 22:47:22 38° NE 22:51:29 16° ESE
Nimbus 7 Rocket 4.3 22:41:40 10° NNE 22:47:36 87° WNW 22:49:16 50° SSW
Sich 1 Rocket 3.4 22:43:42 10° N 22:48:07 85° W 22:48:19 81° SSW
ADEOS Rocket 3.1 22:48:07 45° SW 22:49:12 51° W 22:54:55 10° NNW
Cosmos 1238 Rocket 3.6 22:53:18 10° N 22:55:14 37° NNE 22:55:14 37° NNE
Resurs 1-4 Rocket 4.0 22:54:04 10° NE 22:57:41 18° E 22:59:38 15° ESE
USA 267 3.4 22:57:52 44° S 22:59:15 50° SW 23:05:36 10° WNW
USA 229 DEB 4.3 22:53:57 10° NW 23:01:13 64° NE 23:08:59 10° SE
USA 229 4.3 22:54:03 10° NW 23:01:18 63° NE 23:09:03 10° SE
Cosmos 2333 Rocket 2.6 23:02:25 37° WSW 23:04:27 57° WNW 23:10:04 10° NNE
Okean 2 3.4 23:05:13 66° W 23:05:15 66° W 23:09:20 10° N
Cosmos 1048 Rocket 4.0 23:01:08 10° NNW 23:06:20 73° ENE 23:07:52 45° SE
Cosmos 2322 3.8 23:05:35 45° SW 23:07:21 73° WNW 23:13:06 10° NNE
Cosmos 2322 Rocket 4.1 23:04:26 10° W 23:08:45 23° NW 23:13:12 10° N
S3M 4.1 23:07:29 42° SSE 23:09:44 71° E 23:16:05 10° NNE
Okean 1 Rocket 3.4 23:06:51 10° N 23:11:13 59° ENE 23:12:02 49° ESE
Cosmos 1125 Rocket 3.9 23:12:20 44° SE 23:13:22 51° ESE 23:18:24 10° NNE
Cosmos 1386 Rocket 4.3 23:07:48 10° N 23:13:52 86° E 23:15:58 44° S
NOSS 2-2 (E) 4.5 23:10:02 10° NW 23:15:09 74° NE 23:21:56 12° SE
Cosmos 1553 Rocket 4.0 23:13:30 44° SSW 23:15:27 69° W 23:21:38 10° N
USA 308 4.5 23:16:46 23° ESE 23:16:46 23° ESE 23:19:09 10° ENE
Cosmos 494 Rocket 3.9 23:10:51 10° NNW 23:16:00 80° ENE 23:17:31 47° SSE
Cosmos 1674 3.1 23:16:19 51° WNW 23:16:19 51° WNW 23:19:47 10° N
Cosmos 1626 2.4 23:17:18 58° NW 23:17:18 58° NW 23:20:40 10° N
ADEOS II 4.4 23:14:58 10° NE 23:17:51 15° E 23:20:43 10° ESE
Cosmos 1844 Rocket 4.2 23:14:54 10° NW 23:18:49 20° W 23:18:54 20° W
ASTEX 1 3.8 23:14:34 10° N 23:19:17 49° WNW 23:20:16 43° WSW
CZ-4C R/B 2.9 23:12:05 10° NW 23:19:24 82° SW 23:25:30 21° SSE
Lacrosse 5 4.0 23:23:01 14° ESE 23:23:14 14° ESE 23:25:43 10° E
Cosmos 2221 Rocket 3.9 23:23:13 47° W 23:23:44 50° WNW 23:28:02 10° N
NOSS 3-1 (A) 4.0 23:20:26 10° NW 23:27:58 83° SW 23:35:34 15° SSE
Cosmos 1867 3.6 23:26:47 46° SW 23:28:28 81° NW 23:34:00 10° NE
ATLAS 3B R/B 4.5 23:26:35 10° WNW 23:30:50 16° WSW 23:31:23 16° WSW
Cosmos 1242 Rocket 4.1 23:29:41 10° NNW 23:32:01 25° WNW 23:32:01 25° WNW
Meteor 1-16 Rocket 4.3 23:27:33 10° NNW 23:33:29 71° W 23:35:23 44° SSW
Cosmos 2298 Rocket 4.0 23:33:24 50° S 23:34:49 80° ESE 23:40:09 10° NNE
Cosmos 1674 Rocket 3.7 23:34:27 51° WSW 23:34:57 55° WNW 23:39:14 10° N
Cosmos 2219 Rocket 3.0 23:34:03 28° WSW 23:36:30 43° NW 23:41:50 10° NNE
NOSS 3-1 (C) 4.3 23:29:36 10° NW 23:36:56 50° WSW 23:40:36 32° S
Thor Agena Rocket 3.6 23:31:43 10° NNE 23:37:01 73° ESE 23:38:41 44° S
USA 305 3.3 23:40:33 46° SE 23:40:33 46° SE 23:44:24 10° ENE
SL-14 R/B 3.1 23:45:06 69° WSW 23:45:22 73° W 23:49:16 10° N
Meteor 2-10 Rocket 3.8 23:40:32 10° N 23:46:15 71° ENE 23:49:04 30° SSE
Cosmos 371 Rocket 3.2 23:47:03 51° SSW 23:48:19 88° WNW 23:53:13 10° NNE
NOSS 2-2 (D) 4.3 23:45:30 10° NW 23:50:39 82° SW 23:57:58 10° SSE
Cosmos 1455 Rocket 3.6 23:47:17 10° N 23:51:42 55° ENE 23:53:37 31° SE
Cosmos 1378 Rocket 4.3 23:51:09 36° W 23:51:56 39° WNW 23:56:06 10° N
Cosmos 1745 Rocket 4.3 23:46:16 10° NNW 23:52:17 51° W 23:54:26 36° SW
